Hourly Weather Abbakumovo

Today, 30 September, Wednesday

Time Temperature Precipitation Wind Pressure Humidity
00:00 +10°C° 0 mm 2 mps 746 mmHg 86%
01:00 +10°C° 0 mm 2 mps 746 mmHg 83%
02:00 +10°C° 0 mm 2 mps 746 mmHg 82%
03:00 +10°C° 0 mm 2 mps 745 mmHg 80%
04:00 +10°C° 0 mm 2 mps 745 mmHg 78%
05:00 +10°C° 0 mm 2 mps 745 mmHg 75%
06:00 +10°C° 0 mm 2 mps 745 mmHg 72%
07:00 +10°C° 0 mm 3 mps 745 mmHg 69%
08:00 +11°C° 0 mm 3 mps 746 mmHg 66%
09:00 +12°C° 0 mm 3 mps 745 mmHg 62%
10:00 +14°C° 0 mm 3 mps 745 mmHg 58%
11:00 +16°C° 0 mm 3 mps 745 mmHg 54%
12:00 +17°C° 0 mm 3 mps 745 mmHg 53%
13:00 +17°C° 0 mm 3 mps 745 mmHg 52%
14:00 +18°C° 0 mm 4 mps 745 mmHg 51%
15:00 +16°C° 0 mm 3 mps 745 mmHg 57%
16:00 +14°C° 0 mm 3 mps 745 mmHg 64%
17:00 +13°C° 0 mm 2 mps 745 mmHg 70%
18:00 +13°C° 0 mm 2 mps 746 mmHg 72%
19:00 +12°C° 0 mm 2 mps 746 mmHg 74%
20:00 +10°C° 0 mm 3 mps 746 mmHg 76%
21:00 +10°C° 0 mm 3 mps 746 mmHg 76%
22:00 +9°C° 0 mm 2 mps 746 mmHg 76%
23:00 +9°C° 0 mm 2 mps 746 mmHg 76%

Tomorrow, 1 October, Thursday

Time Temperature Precipitation Wind Pressure Humidity
00:00 +9°C° 0 mm 2 mps 746 mmHg 77%
01:00 +8°C° 0 mm 2 mps 746 mmHg 77%
02:00 +8°C° 0 mm 2 mps 747 mmHg 77%
03:00 +8°C° 0 mm 3 mps 746 mmHg 78%
04:00 +8°C° 0 mm 3 mps 746 mmHg 79%
05:00 +7°C° 0 mm 3 mps 746 mmHg 79%
06:00 +8°C° 0 mm 3 mps 746 mmHg 76%
07:00 +9°C° 0 mm 3 mps 747 mmHg 72%
08:00 +10°C° 0 mm 3 mps 747 mmHg 68%
09:00 +12°C° 0 mm 3 mps 747 mmHg 64%
10:00 +14°C° 0 mm 3 mps 747 mmHg 60%
11:00 +16°C° 0 mm 3 mps 747 mmHg 56%
12:00 +17°C° 0 mm 4 mps 747 mmHg 54%
13:00 +18°C° 0 mm 4 mps 747 mmHg 53%
14:00 +19°C° 0 mm 4 mps 746 mmHg 52%
15:00 +17°C° 0 mm 4 mps 746 mmHg 58%
16:00 +16°C° 0 mm 3 mps 746 mmHg 64%
17:00 +13°C° 0 mm 3 mps 746 mmHg 70%
18:00 +12°C° 0 mm 3 mps 747 mmHg 71%
19:00 +11°C° 0 mm 3 mps 747 mmHg 72%
20:00 +10°C° 0 mm 3 mps 747 mmHg 73%
21:00 +10°C° 0 mm 3 mps 747 mmHg 73%
22:00 +9°C° 0 mm 3 mps 747 mmHg 73%
23:00 +8°C° 0 mm 2 mps 748 mmHg 73%

Day after tomorrow, 2 October, Friday

Time Temperature Precipitation Wind Pressure Humidity
00:00 +8°C° 0 mm 3 mps 748 mmHg 74%
01:00 +8°C° 0 mm 3 mps 748 mmHg 75%
02:00 +8°C° 0 mm 3 mps 748 mmHg 75%
03:00 +8°C° 0 mm 3 mps 748 mmHg 76%
04:00 +8°C° 0 mm 3 mps 748 mmHg 77%
05:00 +8°C° 0 mm 3 mps 748 mmHg 78%
06:00 +9°C° 0 mm 3 mps 748 mmHg 75%
07:00 +9°C° 0 mm 3 mps 748 mmHg 72%
08:00 +10°C° 0 mm 3 mps 748 mmHg 69%
09:00 +12°C° 0 mm 3 mps 748 mmHg 65%
10:00 +13°C° 0 mm 3 mps 748 mmHg 61%
11:00 +14°C° 0 mm 3 mps 748 mmHg 57%
12:00 +15°C° 0 mm 4 mps 748 mmHg 56%
13:00 +17°C° 0 mm 4 mps 748 mmHg 54%
14:00 +17°C° 0 mm 4 mps 748 mmHg 53%
15:00 +16°C° 0 mm 3 mps 748 mmHg 58%
16:00 +14°C° 0 mm 3 mps 748 mmHg 63%
17:00 +13°C° 0 mm 3 mps 748 mmHg 69%
18:00 +12°C° 0 mm 3 mps 748 mmHg 71%
19:00 +12°C° 0 mm 3 mps 749 mmHg 73%
20:00 +11°C° 0 mm 3 mps 749 mmHg 76%
21:00 +11°C° 0 mm 3 mps 749 mmHg 78%
22:00 +11°C° 0 mm 3 mps 749 mmHg 80%
23:00 +11°C° 0 mm 3 mps 749 mmHg 82%

3 October, Saturday

Time Temperature Precipitation Wind Pressure Humidity
00:00 +10°C° 0 mm 3 mps 749 mmHg 84%
01:00 +10°C° 0 mm 3 mps 749 mmHg 85%
02:00 +10°C° 0 mm 3 mps 749 mmHg 87%
03:00 +10°C° 0 mm 3 mps 749 mmHg 88%
04:00 +10°C° 0 mm 3 mps 749 mmHg 89%
05:00 +9°C° 0 mm 3 mps 749 mmHg 90%
06:00 +10°C° 0 mm 3 mps 749 mmHg 86%
07:00 +11°C° 0 mm 4 mps 749 mmHg 83%
08:00 +11°C° 0 mm 4 mps 749 mmHg 79%
09:00 +12°C° 0 mm 4 mps 749 mmHg 74%
10:00 +14°C° 0 mm 4 mps 749 mmHg 69%
11:00 +15°C° 0 mm 4 mps 749 mmHg 64%
12:00 +17°C° 0 mm 4 mps 749 mmHg 62%
13:00 +17°C° 0 mm 4 mps 749 mmHg 60%
14:00 +18°C° 0 mm 4 mps 748 mmHg 58%
15:00 +15°C° 0 mm 4 mps 748 mmHg 62%
16:00 +14°C° 0 mm 4 mps 748 mmHg 67%
17:00 +13°C° 0 mm 3 mps 748 mmHg 72%
18:00 +13°C° 0 mm 3 mps 749 mmHg 74%
19:00 +12°C° 0 mm 3 mps 749 mmHg 76%
20:00 +11°C° 0 mm 3 mps 749 mmHg 78%
21:00 +11°C° 0 mm 3 mps 749 mmHg 80%
22:00 +10°C° 0 mm 3 mps 749 mmHg 82%
23:00 +10°C° 0 mm 3 mps 749 mmHg 84%

4 October, Sunday

Time Temperature Precipitation Wind Pressure Humidity
00:00 +10°C° 0 mm 3 mps 749 mmHg 85%
01:00 +9°C° 0 mm 2 mps 749 mmHg 86%
02:00 +9°C° 0 mm 2 mps 749 mmHg 87%
03:00 +9°C° 0 mm 3 mps 749 mmHg 86%
04:00 +9°C° 0 mm 3 mps 749 mmHg 86%
05:00 +8°C° 0 mm 3 mps 749 mmHg 85%
06:00 +9°C° 0 mm 3 mps 749 mmHg 82%
07:00 +10°C° 0 mm 3 mps 749 mmHg 78%
08:00 +10°C° 0 mm 4 mps 749 mmHg 75%
09:00 +12°C° 0 mm 4 mps 749 mmHg 71%
10:00 +13°C° 0 mm 3 mps 749 mmHg 67%
11:00 +14°C° 0 mm 3 mps 749 mmHg 63%
12:00 +15°C° 0 mm 4 mps 749 mmHg 61%
13:00 +15°C° 0 mm 4 mps 749 mmHg 59%
14:00 +17°C° 0 mm 4 mps 749 mmHg 57%
15:00 +14°C° 0 mm 3 mps 749 mmHg 62%
16:00 +13°C° 0 mm 3 mps 749 mmHg 68%
17:00 +12°C° 0 mm 3 mps 749 mmHg 73%
18:00 +12°C° 0 mm 3 mps 749 mmHg 74%
19:00 +11°C° 0 mm 3 mps 749 mmHg 75%
20:00 +10°C° 0 mm 3 mps 749 mmHg 76%
21:00 +10°C° 0 mm 3 mps 749 mmHg 76%
22:00 +10°C° 0 mm 3 mps 749 mmHg 76%
23:00 +10°C° 0 mm 4 mps 749 mmHg 75%

5 October, Monday

Time Temperature Precipitation Wind Pressure Humidity
00:00 +10°C° 0 mm 4 mps 749 mmHg 76%
01:00 +9°C° 0 mm 3 mps 749 mmHg 78%
02:00 +9°C° 0 mm 3 mps 749 mmHg 79%
03:00 +9°C° 0 mm 3 mps 749 mmHg 78%
04:00 +7°C° 0 mm 4 mps 749 mmHg 77%
05:00 +7°C° 0 mm 4 mps 748 mmHg 76%
06:00 +8°C° 0 mm 4 mps 748 mmHg 73%
07:00 +10°C° 0 mm 4 mps 748 mmHg 70%
08:00 +10°C° 0 mm 4 mps 748 mmHg 67%
09:00 +12°C° 0 mm 5 mps 748 mmHg 62%
10:00 +13°C° 0 mm 5 mps 748 mmHg 57%
11:00 +14°C° 0 mm 5 mps 748 mmHg 52%
12:00 +15°C° 0 mm 5 mps 748 mmHg 50%
13:00 +15°C° 0 mm 5 mps 748 mmHg 48%
14:00 +16°C° 0 mm 5 mps 748 mmHg 45%
15:00 +15°C° 0 mm 5 mps 747 mmHg 50%
16:00 +14°C° 0 mm 4 mps 747 mmHg 54%
17:00 +13°C° 0 mm 4 mps 747 mmHg 59%
18:00 +13°C° 0 mm 4 mps 747 mmHg 59%
19:00 +13°C° 0 mm 4 mps 747 mmHg 58%
20:00 +12°C° 0 mm 4 mps 747 mmHg 58%
21:00 +12°C° 0 mm 4 mps 747 mmHg 59%
22:00 +12°C° 0 mm 4 mps 746 mmHg 60%
23:00 +12°C° 0 mm 4 mps 746 mmHg 61%
Show more